ARIANE 1 DEB

基本信息
目录编号:
27732
目录名称:
ARIANE 1 DEB
国际标识:
1979-104S
轨道中心:
EARTH
物体状态:
在轨
发射日期:
1979-12-24 UTC
轨道信息
数据来源: 国际轨道数据
星历时间: 2026-07-13T19:27:39+0800
半长轴: 27236.359km
偏心率: 0.7308993
轨道倾角: 16.694°
近地点辐角: 204.601°
升交点赤经: 355.778°
平近点角: 87.062°
近地点: 951.186km
远地点: 40765.258km
周期: 745.561分钟
每日圈数: 1.931431
详细信息
发射场:
FRGUI
轨道高度:
LEO
数据来源:
AOE Integration Group
参考系:
TEME
时间系统:
UTC
历元类型:
SGP4
2D轨道图
3D轨道图
轨道高度分析图
轨道倾角分析图
轨道综合分析图
查看轨道综合分析图